Regional Weather Roundup
Issued by NWS

Home | Current Version | Previous Version | Text Only | Print | Product List | Glossary On
Versions: 1 2 3 4 5 6 7 8 9 10 11 12 13 14 15 16 17 18 19 20 21 22 23 24 25 26 27 28 29 30 31 32 33 34 35 36 37 38 39 40 41 42 43 44 45 46 47 48 49 50
000
ASUS43 KTOP 280208
RWRKS

WEATHER ROUNDUP FOR KANSAS
NATIONAL WEATHER SERVICE GOODLAND KS
800 PM CST THU NOV 27 2014

NOTE:  "FAIR" INDICATES FEW OR NO CLOUDS BELOW 12,000 FEET WITH NO
SIGNIFICANT WEATHER AND/OR OBSTRUCTIONS TO VISIBILITY.

KSZ001>006-013>018-027>032-041>047-280300-
NORTHWEST KANSAS

CITY           SKY/WX    TMP DP  RH WIND       PRES   REMARKS
GOODLAND       MOCLDY    51  27  39 SW16      30.07R
HAYS           PTCLDY    37  19  48 SE12      30.10F WCI  30
HILL CITY      CLEAR     43  24  47 S7        30.07F
RUSSELL        PTCLDY    38  21  50 S20       30.08F WCI  28
$$

KSZ061>065-074>080-084>089-280300-
SOUTHWEST KANSAS

CITY           SKY/WX    TMP DP  RH WIND       PRES   REMARKS
DODGE CITY     PTCLDY    45  24  43 S17       30.12F
ELKHART          N/A     49  26  41 SW12        N/A
GARDEN CITY    PTCLDY    44  30  57 S13       30.10F
GREAT BEND     PTCLDY    39  19  45 S16       30.14F WCI  30
LIBERAL        CLEAR     43  27  52 S10       30.15F
PRATT          MOCLDY    39  23  52 S13       30.18F WCI  32
$$

KSZ066>073-081>083-090>101-280300-
SOUTHEAST KANSAS

CITY           SKY/WX    TMP DP  RH WIND       PRES   REMARKS
CHANUTE        CLEAR     32  24  72 SE8       30.33F
COFFEYVILLE    PTCLDY    35  25  66 SE5       30.35S
HUTCHINSON     PTCLDY    38  20  48 S15       30.20F WCI  29
MEDICINE LODGE   N/A     42  24  49 S13       30.21F
NEWTON         PTCLDY    37  16  41 S15       30.24F WCI  28
PARSONS        PTCLDY    36  25  64 S6        30.34F
WICHITA INTL   MOCLDY    40  19  43 S15       30.24F WCI  32
WICHITA JABRA  FAIR      38  19  46 S15       30.24F WCI  29
WICHITA MCCONL PTCLDY    39  17  40 S15       30.25F WCI  31
WINFIELD       PTCLDY    37  22  54 SE8       30.29F
$$

KSZ007>012-019>026-033>040-048>060-102>105-280300-
NORTHEAST KANSAS

CITY           SKY/WX    TMP DP  RH WIND       PRES   REMARKS
CONCORDIA      CLEAR     36  17  46 S15       30.16F WCI  27
EMPORIA        CLEAR     30  20  66 S9        30.28F
LAWRENCE       CLEAR     29  21  72 SE6       30.33S
MANHATTAN      CLEAR     31  18  58 SW3       30.25F
MARYSVILLE     CLEAR     32  21  64 SE10      30.21F WCI  24
OLATHE IND     CLEAR     31  22  69 SE9       30.32F
OLATHE EXE     CLEAR     32  22  66 SE7       30.31F
SALINA         CLEAR     37  18  46 SE14      30.19F WCI  28
TOPEKA BILLARD CLEAR     31  20  63 SE6       30.31F
TOPEKA FORBES  CLEAR     32  20  61 SE7       30.30S
$$


USA.gov is the U.S. government's official web portal to all federal, state and local government web resources and services.